FW8648 Weather Reports


time (UTC)temp
F
wind
direction
speed
knots
gust
knots
rain 1hr
in
rain 24hr
in
rain mn
in
humidity
%
barometer
mb
20260507130416 57 72 1.7 4.3 0.00 0.02 0.00 83 1012.9
20260507125911 58 43 1.7 5.2 0.00 0.02 0.00 85 1012.6
20260507125406 58 22 1.7 7.0 0.00 0.02 0.00 85 1012.4
20260507124906 58 61 1.7 7.0 0.00 0.02 0.00 85 1012.2
20260507124407 58 96 1.7 4.3 0.00 0.02 0.00 86 1012.2
20260507123904 58 119 1.7 4.3 0.00 0.02 0.00 87 1012.4
20260507123403 58 87 1.7 5.2 0.00 0.02 0.00 87 1012.4
20260507123120 58 61 1.7 5.2 0.00 0.02 0.00 86 1012.3
20260507122403 58 72 1.7 4.3 0.00 0.02 0.00 86 1012.5
20260507121903 58 67 0.9 4.3 0.00 0.02 0.00 87 1012.5
20260507121405 58 182 0.9 3.5 0.00 0.02 0.00 89 1012.5
20260507120903 58 101 0.9 2.6 0.00 0.02 0.00 89 1012.3
20260507120405 58 53 0.9 3.5 0.00 0.02 0.00 90 1012.3
20260507115905 58 85 0.9 3.5 0.00 0.02 0.00 89 1012.4
20260507115623 58 349 0.0 1.7 0.00 0.02 0.00 89 1012.2
20260507114903 58 74 0.9 1.7 0.00 0.02 0.00 89 1012.3
20260507114403 58 74 0.9 3.5 0.00 0.02 0.00 88 1012.2
20260507113904 58 55 0.9 3.5 0.00 0.02 0.00 88 1012.3
20260507113405 59 53 0.9 3.5 0.00 0.02 0.00 87 1012.3
20260507113128 59 94 0.9 3.5 0.00 0.02 0.00 86 1012.3
20260507112404 59 344 0.9 2.6 0.00 0.02 0.00 85 1012.2
20260507112345 60 81 0.9 3.5 0.00 0.02 0.00 85 1012.2
20260507111358 60 81 0.9 3.5 0.00 0.02 0.00 86 1012.4
20260507110852 60 57 0.9 2.6 0.00 0.02 0.00 87 1012.1
20260507110346 60 348 0.9 1.7 0.00 0.02 0.00 87 1012.0
20260507105840 60 348 0.9 2.6 0.00 0.02 0.00 87 1011.8
20260507105334 60 54 0.9 3.5 0.00 0.02 0.00 87 1011.6
20260507104827 60 307 0.9 3.5 0.00 0.02 0.00 87 1011.5
20260507104322 60 19 0.9 3.5 0.00 0.02 0.00 87 1011.4
20260507104041 60 136 0.9 2.6 0.00 0.02 0.00 87 1011.6
20260507103310 60 32 0.9 2.6 0.00 0.02 0.00 88 1011.4
20260507103022 60 281 0.9 2.6 0.00 0.02 0.00 87 1011.5
20260507102258 60 74 0.9 2.6 0.00 0.02 0.00 87 1011.6
20260507101751 60 5 0.9 1.7 0.00 0.02 0.00 87 1011.6
20260507101245 61 5 0.9 3.5 0.00 0.02 0.00 87 1011.4
20260507100740 61 0 0.0 3.5 0.00 0.02 0.00 87 1011.5
20260507100233 61 264 0.0 1.7 0.00 0.02 0.00 87 1011.5
20260507095728 61 29 0.9 3.5 0.00 0.02 0.00 87 1011.6
20260507095223 62 13 0.9 3.5 0.00 0.02 0.00 86 1011.6
20260507094717 62 306 0.9 2.6 0.00 0.02 0.00 86 1011.5
20260507094210 62 38 0.9 3.5 0.00 0.02 0.00 85 1011.3
20260507093703 62 349 0.9 3.5 0.00 0.02 0.00 85 1011.4
20260507093158 62 5 0.9 3.5 0.00 0.02 0.00 85 1011.4
20260507092652 62 334 0.9 5.2 0.00 0.02 0.00 85 1011.1
20260507092145 63 39 0.9 5.2 0.00 0.02 0.00 84 1011.1
20260507091904 63 225 0.9 3.5 0.00 0.02 0.00 85 1010.9
20260507091134 63 226 0.9 3.5 0.00 0.02 0.00 84 1010.8
20260507090628 63 109 0.9 3.5 0.00 0.02 0.00 85 1010.5
20260507090122 64 344 1.7 6.1 0.00 0.02 0.00 84 1010.7
20260507085615 64 84 0.9 6.1 0.00 0.02 0.00 85 1010.4
20260507085110 64 351 0.9 3.5 0.00 0.02 0.00 85 1010.5
20260507084604 65 315 0.9 3.5 0.00 0.02 0.00 86 1010.6
20260507084322 65 273 0.9 3.5 0.00 0.02 0.00 86 1010.6
20260507083552 65 40 0.9 3.5 0.00 0.02 0.00 86 1010.4
20260507083047 66 14 0.9 3.5 0.00 0.02 0.00 84 1010.4
20260507082540 67 13 0.9 3.5 0.00 0.02 0.00 84 1010.3
20260507082034 67 195 0.9 7.0 0.00 0.02 0.00 84 1010.2
20260507081528 68 0 1.7 7.0 0.00 0.02 0.00 83 1010.2
20260507081244 69 196 0.9 7.0 0.00 0.02 0.00 84 1010.1
20260507080516 70 355 0.0 7.0 0.00 0.02 0.00 84 1010.1
20260507080010 70 249 0.0 0.9 0.00 0.02 0.00 85 1010.2
20260507075504 70 249 0.0 1.7 0.00 0.02 0.00 84 1010.0
20260507074958 70 249 0.0 0.9 0.00 0.02 0.00 84 1010.1
20260507074452 70 249 0.0 0.9 0.00 0.02 0.00 83 1010.2
20260507073946 70 249 0.9 2.6 0.00 0.02 0.00 83 1010.1
20260507073440 70 249 0.9 2.6 0.00 0.02 0.00 83 1010.1
20260507072934 71 239 0.0 2.6 0.00 0.02 0.00 83 1010.0
20260507072428 71 239 0.0 2.6 0.00 0.02 0.00 83 1010.0
20260507071922 71 241 0.0 0.9 0.00 0.02 0.00 83 1009.9
20260507071416 71 241 0.0 1.7 0.00 0.02 0.00 82 1009.7
20260507070912 71 241 0.9 1.7 0.00 0.02 0.00 82 1009.5
20260507070413 71 241 0.9 1.7 0.00 0.02 0.00 82 1009.3
20260507065910 71 241 0.9 2.6 0.00 0.02 0.00 81 1009.2
20260507065410 71 260 0.9 2.6 0.00 0.02 0.00 81 1009.0
20260507064909 71 261 0.9 1.7 0.00 0.02 0.00 81 1008.9
20260507064407 71 223 0.9 2.6 0.00 0.02 0.00 81 1008.9
20260507063907 71 231 0.9 2.6 0.00 0.02 0.00 81 1008.7
20260507063407 72 210 0.9 3.5 0.00 0.02 0.00 80 1008.5
20260507062906 72 209 1.7 3.5 0.00 0.02 0.00 80 1008.7
20260507062406 72 211 1.7 3.5 0.00 0.02 0.00 80 1009.0
20260507061908 72 225 1.7 3.5 0.00 0.02 0.00 79 1009.1
20260507061403 72 216 1.7 2.6 0.00 0.02 0.00 79 1009.0
20260507060904 72 216 0.9 2.6 0.00 0.02 0.00 79 1009.2
20260507060403 72 228 0.9 2.6 0.00 0.02 0.00 79 1009.2
20260507055903 72 228 0.9 2.6 0.00 0.02 0.00 79 1009.3
20260507055402 72 231 0.9 1.7 0.00 0.02 0.00 78 1009.4
20260507055129 72 230 0.9 2.6 0.00 0.02 0.00 78 1009.4
20260507054403 72 229 1.7 2.6 0.00 0.02 0.00 78 1009.6
20260507053902 72 210 1.7 2.6 0.00 0.02 0.00 78 1009.7
20260507053616 72 209 1.7 3.5 0.00 0.02 0.00 78 1009.8
20260507052856 72 209 1.7 3.5 0.00 0.02 0.00 78 1009.9
20260507052358 72 219 1.7 4.3 0.00 0.02 0.00 78 1010.0
20260507051856 71 236 1.7 3.5 0.00 0.02 0.00 78 1010.1
20260507051621 71 277 1.7 2.6 0.00 0.02 0.00 78 1010.1
20260507050844 71 279 0.9 2.6 0.00 0.02 0.00 79 1010.1
20260507050338 71 217 0.9 2.6 0.00 0.02 0.00 79 1010.1
20260507045833 71 217 0.9 1.7 0.00 0.02 0.00 79 1010.1
20260507045326 71 217 0.9 2.6 0.00 0.02 0.00 79 1010.2
20260507045042 71 217 0.9 2.6 0.00 0.02 0.00 79 1010.3
20260507044315 71 216 0.9 2.6 0.00 0.02 0.00 79 1010.3
20260507043808 71 216 0.9 2.6 0.00 0.02 0.00 79 1010.3
20260507043303 71 216 0.9 1.7 0.00 0.02 0.00 79 1010.4
20260507042757 71 216 0.9 1.7 0.00 0.02 0.00 79 1010.4
20260507042250 71 198 0.9 1.7 0.00 0.02 0.00 79 1010.4
20260507041744 71 198 0.9 2.6 0.00 0.02 0.00 79 1010.4
20260507041239 71 198 0.9 2.6 0.00 0.02 0.00 79 1010.2
20260507040734 71 198 0.9 2.6 0.00 0.02 0.00 79 1010.3
20260507040229 71 198 1.7 2.6 0.00 0.02 0.00 79 1010.5
20260507035722 71 196 1.7 3.5 0.00 0.02 0.02 79 1010.2
20260507035217 71 220 1.7 3.5 0.00 0.02 0.02 80 1010.2
20260507034711 71 220 1.7 3.5 0.00 0.02 0.02 80 1010.1
20260507034205 70 225 1.7 3.5 0.00 0.02 0.02 80 1010.3
20260507033658 70 213 1.7 2.6 0.00 0.02 0.02 80 1010.2
20260507033153 70 213 1.7 2.6 0.00 0.02 0.02 80 1010.1
20260507032907 70 214 1.7 2.6 0.00 0.02 0.02 80 1010.2
20260507032403 70 213 1.7 2.6 0.00 0.02 0.02 80 1010.2
20260507031634 70 277 1.7 2.6 0.00 0.02 0.02 80 1010.1
20260507031127 70 218 1.7 3.5 0.00 0.02 0.02 80 1010.0
20260507030847 70 215 1.7 3.5 0.00 0.02 0.02 80 1010.2
20260507030115 70 215 1.7 2.6 0.00 0.02 0.02 80 1010.2
20260507025611 70 215 1.7 2.6 0.00 0.02 0.02 80 1010.3
20260507025104 70 215 1.7 2.6 0.00 0.02 0.02 80 1010.3
20260507024559 70 217 1.7 3.5 0.00 0.02 0.02 80 1010.2
20260507024053 70 217 1.7 3.5 0.00 0.02 0.02 80 1010.2
20260507024031 70 200 0.9 3.5 0.00 0.02 0.02 80 1010.2
20260507023041 70 190 1.7 2.6 0.00 0.02 0.02 80 1010.3
20260507022534 70 190 1.7 2.6 0.00 0.02 0.02 80 1010.5
20260507022523 70 189 0.9 3.5 0.00 0.02 0.02 80 1010.4
20260507021523 70 188 1.7 3.5 0.00 0.02 0.02 80 1010.4
20260507021017 70 209 0.9 2.6 0.00 0.02 0.02 80 1010.3
20260507020509 70 204 0.9 2.6 0.00 0.02 0.02 80 1010.3
20260507020010 70 273 0.9 1.7 0.00 0.02 0.02 80 1010.4
20260507015458 70 273 0.9 2.6 0.00 0.02 0.02 80 1010.4
20260507014953 70 273 0.9 2.6 0.00 0.02 0.02 80 1010.6
20260507014447 70 273 0.9 1.7 0.00 0.02 0.02 80 1010.5
20260507013946 70 273 0.9 1.7 0.00 0.02 0.02 80 1010.4
20260507013708 70 273 0.9 1.7 0.00 0.02 0.02 80 1010.6
20260507012946 70 273 0.9 1.7 0.00 0.02 0.02 80 1010.5
20260507012445 70 273 0.9 1.7 0.00 0.02 0.02 80 1010.3
20260507012206 70 273 0.9 2.6 0.00 0.02 0.02 80 1010.4
20260507011444 70 273 0.9 2.6 0.00 0.02 0.02 80 1010.5
20260507010942 70 274 0.9 1.7 0.00 0.02 0.02 80 1010.6
20260507010441 69 274 0.0 1.7 0.00 0.02 0.02 80 1010.5
20260507005941 70 274 0.0 0.9 0.00 0.02 0.02 80 1010.6
20260507005657 70 274 0.0 0.9 0.00 0.02 0.02 80 1010.6
20260507004940 70 273 0.0 0.9 0.00 0.02 0.02 80 1010.6
20260507004440 70 273 0.0 0.9 0.00 0.02 0.02 79 1010.6
20260507003941 70 273 0.0 0.9 0.00 0.02 0.02 79 1010.6
20260507003439 70 273 0.0 0.9 0.00 0.02 0.02 79 1010.4
20260507002939 71 273 0.0 0.9 0.00 0.02 0.02 78 1010.5
20260507002439 71 273 0.0 0.0 0.00 0.02 0.02 77 1010.4
20260507001941 71 273 0.0 0.0 0.00 0.02 0.02 77 1010.5
20260507001703 71 273 0.0 0.9 0.00 0.02 0.02 76 1010.5
20260507000940 72 273 0.0 0.9 0.00 0.02 0.02 76 1010.5
20260507000442 72 273 0.0 0.9 0.00 0.02 0.02 75 1010.3
20260506235939 72 273 0.0 0.9 0.00 0.02 0.02 75 1010.4
20260506235439 73 273 0.0 0.9 0.00 0.02 0.02 74 1010.4
20260506234934 73 273 0.0 0.9 0.00 0.02 0.02 74 1010.3
20260506234920 73 273 0.0 1.7 0.00 0.02 0.02 74 1010.3
20260506233922 73 272 0.0 1.7 0.00 0.02 0.02 74 1010.3
20260506233416 73 277 0.0 0.0 0.00 0.02 0.02 73 1010.1
20260506232910 73 277 0.0 0.0 0.00 0.02 0.02 73 1010.3
20260506232403 73 277 0.0 0.9 0.00 0.02 0.02 73 1010.2
20260506231858 73 277 0.9 1.7 0.00 0.02 0.02 73 1010.2
20260506231352 74 276 0.9 1.7 0.00 0.02 0.02 72 1010.3
20260506230844 74 276 0.9 2.6 0.00 0.02 0.02 72 1010.1
20260506230338 74 277 0.9 2.6 0.00 0.02 0.02 72 1010.0
20260506225834 74 277 0.9 2.6 0.00 0.02 0.02 71 1010.0
20260506225327 74 277 0.9 2.6 0.00 0.02 0.02 71 1010.1
20260506224821 74 277 0.9 2.6 0.00 0.02 0.02 71 1010.1
20260506224316 74 323 0.9 3.5 0.00 0.02 0.02 70 1010.2
20260506223810 74 325 1.7 3.5 0.00 0.02 0.02 70 1010.1
20260506223304 74 218 0.9 2.6 0.00 0.02 0.02 70 1010.2
20260506222758 74 319 1.7 3.5 0.00 0.02 0.02 70 1010.1
20260506222740 74 234 1.7 3.5 0.00 0.02 0.02 69 1010.1
20260506221746 75 234 1.7 4.3 0.00 0.02 0.02 69 1010.1
20260506221240 75 218 1.7 4.3 0.00 0.02 0.02 69 1010.2
20260506220734 75 211 1.7 4.3 0.00 0.02 0.02 69 1010.3
20260506220227 75 240 1.7 3.5 0.00 0.02 0.02 69 1010.3
20260506215722 75 207 1.7 3.5 0.00 0.02 0.02 69 1010.3
20260506215216 75 219 1.7 5.2 0.00 0.02 0.02 68 1010.2
20260506214710 75 221 2.6 6.1 0.00 0.02 0.02 69 1010.2
20260506214203 75 203 2.6 6.1 0.00 0.02 0.02 69 1010.2
20260506213657 75 216 1.7 4.3 0.00 0.02 0.02 69 1010.3
20260506213152 75 169 2.6 7.0 0.00 0.02 0.02 69 1010.2
20260506212646 74 217 1.7 7.0 0.00 0.02 0.02 69 1010.2
20260506212140 74 249 1.7 4.3 0.00 0.02 0.02 71 1010.3
20260506211901 74 200 1.7 4.3 0.00 0.02 0.02 70 1010.3
20260506211128 74 207 1.7 2.6 0.00 0.02 0.02 71 1010.2
20260506210622 74 207 1.7 2.6 0.00 0.02 0.02 70 1010.0
20260506210116 74 206 0.9 2.6 0.00 0.02 0.02 71 1010.0
20260506205610 74 201 0.9 2.6 0.00 0.02 0.02 71 1009.8
20260506205104 74 197 1.7 2.6 0.00 0.02 0.02 71 1009.9
20260506204558 73 191 1.7 3.5 0.00 0.02 0.02 71 1009.8
20260506204052 73 279 0.9 2.6 0.00 0.02 0.02 72 1010.0
20260506203813 73 279 0.9 2.6 0.00 0.02 0.02 72 1009.7
20260506203300 73 192 1.7 3.5 0.00 0.02 0.02 72 1009.7
20260506202534 73 195 1.7 3.5 0.00 0.02 0.02 72 1009.5
20260506202028 73 219 0.9 2.6 0.00 0.02 0.02 73 1009.4
20260506201522 72 219 0.9 2.6 0.00 0.02 0.02 73 1009.7
20260506201015 72 219 0.9 2.6 0.00 0.02 0.02 74 1009.9
20260506200511 72 218 0.9 3.5 0.00 0.02 0.02 73 1010.0
20260506200003 72 217 1.7 4.3 0.00 0.02 0.02 73 1009.8
20260506195458 72 217 1.7 4.3 0.00 0.02 0.02 73 1009.5
20260506194952 71 218 1.7 4.3 0.00 0.02 0.02 73 1009.6
20260506194444 71 221 1.7 4.3 0.00 0.02 0.02 73 1010.0
20260506194200 71 190 1.7 4.3 0.00 0.02 0.02 74 1010.4
20260506193434 71 190 2.6 4.3 0.00 0.02 0.02 73 1010.2
20260506192928 71 211 2.6 4.3 0.00 0.02 0.02 74 1010.2
20260506192647 71 220 1.7 4.3 0.00 0.02 0.02 74 1010.1
20260506191915 71 217 1.7 4.3 0.00 0.02 0.02 74 1010.3
20260506191631 71 210 1.7 4.3 0.00 0.02 0.02 75 1010.8
20260506190914 71 225 2.6 4.3 0.00 0.02 0.02 75 1010.8
20260506190413 71 198 2.6 6.1 0.00 0.02 0.02 74 1010.9
20260506185913 71 223 2.6 6.1 0.00 0.02 0.02 73 1011.0
20260506185413 71 175 2.6 6.1 0.00 0.02 0.02 73 1011.2
20260506184913 71 217 1.7 4.3 0.00 0.02 0.02 73 1011.1
20260506184412 71 207 2.6 6.1 0.00 0.02 0.02 73 1011.3
20260506183912 71 237 2.6 6.1 0.00 0.02 0.02 73 1011.4
20260506183414 71 221 2.6 5.2 0.00 0.02 0.02 73 1011.4
20260506182915 71 221 2.6 5.2 0.00 0.02 0.02 74 1011.3
20260506182408 70 199 2.6 5.2 0.00 0.02 0.02 75 1011.5
20260506181909 70 197 2.6 5.2 0.00 0.02 0.02 75 1011.6
20260506181409 70 221 2.6 5.2 0.00 0.02 0.02 75 1011.7
20260506180908 70 223 2.6 4.3 0.00 0.02 0.02 75 1011.8
20260506180410 69 187 2.6 4.3 0.00 0.02 0.02 76 1011.8
20260506175910 69 199 1.7 4.3 0.00 0.02 0.02 76 1011.7
20260506175856 69 219 2.6 4.3 0.00 0.02 0.02 76 1011.7
20260506174906 69 223 2.6 4.3 0.00 0.02 0.02 76 1011.7
20260506174408 70 219 2.6 6.1 0.00 0.02 0.02 76 1011.7
20260506173904 70 199 2.6 6.1 0.00 0.02 0.02 75 1011.6
20260506173405 70 170 2.6 5.2 0.00 0.02 0.02 75 1011.6
20260506172904 70 190 2.6 6.1 0.00 0.02 0.02 76 1011.8
20260506172359 69 195 3.5 6.1 0.00 0.02 0.02 77 1011.7
20260506171853 69 223 2.6 6.1 0.00 0.02 0.02 77 1011.8
20260506171346 69 226 2.6 5.2 0.00 0.02 0.02 80 1011.7
20260506170841 68 193 1.7 5.2 0.00 0.02 0.02 81 1011.8
20260506170335 67 234 1.7 4.3 0.00 0.02 0.02 83 1011.8
20260506165829 67 188 1.7 4.3 0.00 0.02 0.02 84 1012.0
20260506165323 66 219 2.6 4.3 0.00 0.02 0.02 84 1012.1
20260506164817 66 238 1.7 4.3 0.00 0.02 0.02 84 1012.3
20260506164310 66 243 1.7 3.5 0.00 0.02 0.02 84 1012.3
20260506163805 66 218 0.9 2.6 0.01 0.02 0.02 86 1012.2
20260506163259 66 199 1.7 2.6 0.01 0.02 0.02 85 1012.3
20260506162752 66 182 1.7 3.5 0.01 0.02 0.02 85 1012.5
20260506162246 66 199 1.7 3.5 0.02 0.02 0.02 86 1012.6
20260506161741 66 194 1.7 3.5 0.02 0.02 0.02 86 1012.8
20260506161235 65 229 0.9 2.6 0.02 0.02 0.02 87 1012.7
20260506160729 65 229 0.9 2.6 0.02 0.02 0.02 87 1012.8
20260506160441 65 202 0.9 2.6 0.02 0.02 0.02 87 1012.9
20260506155945 65 191 1.7 3.5 0.02 0.02 0.02 86 1012.9
20260506155211 65 188 1.7 3.5 0.02 0.02 0.02 85 1013.2
20260506154705 66 217 1.7 3.5 0.02 0.02 0.02 85 1013.3
20260506154158 66 217 1.7 3.5 0.01 0.01 0.01 84 1013.3
20260506153653 66 217 0.9 3.5 0.01 0.01 0.01 83 1013.5
20260506153147 67 218 1.7 3.5 0.01 0.01 0.01 82 1013.4
20260506152911 67 218 1.7 3.5 0.00 0.00 0.00 81 1013.5
20260506152135 67 227 1.7 3.5 0.00 0.00 0.00 79 1013.6
20260506151627 68 213 2.6 5.2 0.00 0.00 0.00 78 1013.6
20260506151122 69 206 2.6 5.2 0.00 0.00 0.00 76 1013.6
20260506150617 69 221 2.6 5.2 0.00 0.00 0.00 74 1013.6
20260506150111 70 237 2.6 5.2 0.00 0.00 0.00 73 1013.7
20260506145605 70 190 2.6 7.0 0.00 0.00 0.00 71 1013.7
20260506145059 70 222 2.6 7.0 0.00 0.00 0.00 71 1013.5
20260506144551 69 203 2.6 6.1 0.00 0.00 0.00 72 1013.4
20260506144052 69 194 2.6 5.2 0.00 0.00 0.00 71 1013.4
20260506143552 69 202 2.6 7.0 0.00 0.00 0.00 72 1013.1
20260506143052 69 221 2.6 7.0 0.00 0.00 0.00 71 1013.2
20260506142552 69 208 2.6 5.2 0.00 0.00 0.00 71 1013.1
20260506142541 69 248 2.6 5.2 0.00 0.00 0.00 71 1013.0
20260506141552 69 194 2.6 5.2 0.00 0.00 0.00 71 1013.1
20260506141052 69 203 2.6 5.2 0.00 0.00 0.00 71 1013.1
20260506140552 69 222 2.6 4.3 0.00 0.00 0.00 71 1013.3
20260506140053 69 195 2.6 5.2 0.00 0.00 0.00 71 1013.2
20260506135553 69 241 2.6 7.0 0.00 0.00 0.00 70 1013.2
20260506135315 69 215 2.6 7.0 0.00 0.00 0.00 70 1013.1
20260506134552 69 183 3.5 7.8 0.00 0.00 0.00 70 1013.1
20260506134053 69 231 3.5 7.8 0.00 0.00 0.00 69 1013.2
20260506133551 69 180 3.5 7.0 0.00 0.00 0.00 68 1013.3
20260506133312 69 236 2.6 7.0 0.00 0.00 0.00 69 1013.1
20260506132551 69 234 2.6 7.0 0.00 0.00 0.00 69 1013.1
20260506132048 69 226 2.6 5.2 0.00 0.00 0.00 70 1013.1
20260506131543 69 231 3.5 7.0 0.00 0.00 0.00 70 1013.0
20260506131045 69 209 3.5 7.8 0.00 0.00 0.00 70 1012.9